TimeEDT,TemperatureF,Dew PointF,Humidity,Sea Level PressureIn,VisibilityMPH,Wind Direction,Wind SpeedMPH,Gust SpeedMPH,PrecipitationIn,Events,Conditions,WindDirDegrees,DateUTC
12:35 AM,59.0,46.4,63,30.00,10.0,Calm,Calm,-,N/A,,Partly Cloudy,0,2013-03-23 04:35:00
12:55 AM,57.2,46.4,67,29.99,10.0,Calm,Calm,-,N/A,,Clear,0,2013-03-23 04:55:00
1:15 AM,55.4,46.4,72,29.99,10.0,NNE,3.5,-,N/A,,Clear,20,2013-03-23 05:15:00
1:35 AM,55.4,46.4,72,29.99,10.0,Calm,Calm,-,N/A,,Scattered Clouds,0,2013-03-23 05:35:00
1:55 AM,55.4,46.4,72,29.99,10.0,Calm,Calm,-,N/A,,Overcast,0,2013-03-23 05:55:00
2:15 AM,55.4,46.4,72,29.97,10.0,Calm,Calm,-,N/A,,Overcast,0,2013-03-23 06:15:00
2:35 AM,55.4,46.4,72,29.97,10.0,Calm,Calm,-,N/A,,Scattered Clouds,0,2013-03-23 06:35:00
2:55 AM,55.4,46.4,72,29.96,10.0,Calm,Calm,-,N/A,,Clear,0,2013-03-23 06:55:00
3:15 AM,53.6,46.4,77,29.95,10.0,Calm,Calm,-,N/A,,Clear,0,2013-03-23 07:15:00
3:35 AM,53.6,46.4,77,29.95,10.0,Calm,Calm,-,N/A,,Clear,0,2013-03-23 07:35:00
3:55 AM,55.4,48.2,77,29.94,10.0,Calm,Calm,-,N/A,,Mostly Cloudy,0,2013-03-23 07:55:00
4:15 AM,55.4,48.2,77,29.93,10.0,Calm,Calm,-,N/A,,Overcast,0,2013-03-23 08:15:00
4:35 AM,55.4,48.2,77,29.93,10.0,Calm,Calm,-,N/A,,Overcast,0,2013-03-23 08:35:00
4:55 AM,57.2,48.2,72,29.92,10.0,Calm,Calm,-,N/A,,Overcast,0,2013-03-23 08:55:00
5:15 AM,57.2,48.2,72,29.92,10.0,Calm,Calm,-,N/A,,Overcast,0,2013-03-23 09:15:00
5:35 AM,57.2,48.2,72,29.92,10.0,Calm,Calm,-,N/A,,Overcast,0,2013-03-23 09:35:00
5:55 AM,57.2,48.2,72,29.93,10.0,Calm,Calm,-,N/A,,Overcast,0,2013-03-23 09:55:00
6:15 AM,57.2,50.0,77,29.93,10.0,Calm,Calm,-,N/A,,Overcast,0,2013-03-23 10:15:00
6:35 AM,57.2,50.0,77,29.93,10.0,Calm,Calm,-,N/A,,Overcast,0,2013-03-23 10:35:00
6:50 AM,57.2,50.0,77,29.93,10.0,ESE,6.9,-,N/A,,Mostly Cloudy,120,2013-03-23 10:50:00
7:50 AM,60.8,53.6,77,29.94,5.0,SSE,6.9,-,N/A,,Overcast,160,2013-03-23 11:50:00
8:47 AM,62.6,59.0,88,29.92,4.0,SE,6.9,-,N/A,,Overcast,140,2013-03-23 12:47:00
9:50 AM,64.4,62.6,94,29.92,4.0,SSE,5.8,-,N/A,,Overcast,150,2013-03-23 13:50:00
10:50 AM,71.6,66.2,83,29.92,7.0,South,9.2,-,N/A,,Mostly Cloudy,190,2013-03-23 14:50:00
11:50 AM,75.2,68.0,78,29.91,7.0,SW,9.2,-,N/A,,Overcast,220,2013-03-23 15:50:00
12:50 PM,80.6,69.8,70,29.88,7.0,SSW,12.7,-,N/A,,Mostly Cloudy,200,2013-03-23 16:50:00
1:50 PM,80.6,68.0,65,29.86,7.0,SW,19.6,-,N/A,,Mostly Cloudy,220,2013-03-23 17:50:00
2:50 PM,82.4,66.2,58,29.83,7.0,SW,18.4,29.9,N/A,,Mostly Cloudy,220,2013-03-23 18:50:00
3:50 PM,80.6,66.2,61,29.82,7.0,WSW,18.4,32.2,N/A,,Mostly Cloudy,240,2013-03-23 19:50:00
4:50 PM,78.8,66.2,65,29.79,7.0,SW,20.7,29.9,N/A,,Scattered Clouds,220,2013-03-23 20:50:00
5:50 PM,77.0,68.0,74,29.80,7.0,SW,15.0,21.9,N/A,,Scattered Clouds,230,2013-03-23 21:50:00
6:50 PM,77.0,69.8,78,29.82,7.0,WSW,13.8,-,N/A,,Mostly Cloudy,250,2013-03-23 22:50:00
7:55 PM,75.2,68.0,78,29.83,10.0,SW,5.8,-,N/A,,Clear,230,2013-03-23 23:55:00
8:15 PM,75.2,68.0,78,29.83,10.0,SW,5.8,-,N/A,,Partly Cloudy,220,2013-03-24 00:15:00
8:35 PM,73.4,68.0,83,29.84,10.0,South,3.5,-,N/A,,Mostly Cloudy,180,2013-03-24 00:35:00
8:55 PM,73.4,68.0,83,29.84,9.0,Calm,Calm,-,N/A,,Overcast,0,2013-03-24 00:55:00
9:15 PM,73.4,68.0,83,29.84,10.0,South,6.9,-,N/A,,Mostly Cloudy,190,2013-03-24 01:15:00
9:35 PM,73.4,68.0,83,29.85,10.0,South,3.5,-,N/A,,Mostly Cloudy,180,2013-03-24 01:35:00
9:55 PM,73.4,68.0,83,29.85,10.0,SSE,3.5,-,N/A,,Mostly Cloudy,160,2013-03-24 01:55:00
10:15 PM,71.6,68.0,88,29.85,10.0,SE,3.5,-,N/A,,Scattered Clouds,140,2013-03-24 02:15:00
10:35 PM,73.4,68.0,83,29.85,10.0,ESE,5.8,-,N/A,,Mostly Cloudy,120,2013-03-24 02:35:00
10:55 PM,69.8,64.4,83,29.85,10.0,SE,6.9,-,N/A,,Mostly Cloudy,130,2013-03-24 02:55:00
11:15 PM,69.8,62.6,78,29.85,10.0,SE,3.5,-,N/A,,Mostly Cloudy,130,2013-03-24 03:15:00
11:35 PM,69.8,62.6,78,29.84,10.0,East,4.6,-,N/A,,Mostly Cloudy,100,2013-03-24 03:35:00
11:55 PM,69.8,62.6,78,29.83,10.0,SE,6.9,-,N/A,,Mostly Cloudy,130,2013-03-24 03:55:00